Погода в Тээли

Россия / Республика Тыва     51°00′54″N   90°12′08″E
темп.,
°C
ветер,
м/с
пор.,
м/с
влажн.,
%
обл.,
%
осадки,
мм/ч
давл.,
гПа
погр.,
м
27 июля, вт
вт2701:00+15ююз11623 0.1 100511
04:00+14ю117037 0.1 100511
07:00+17ююв006096 0.1 100570
10:00+21св114773 0.0 1004579
13:00+26св323695 0.0 10011411
16:00+27с5435100 0.2 9992050
19:00+16ю2286100 4.6 1004122
22:00+13ссв119453 0.0 100611
28 июля, ср
ср2801:00+13юз1191100 0.3 100611
04:00+14ююв009398 1.4 100517
07:00+14з118969 1.6 1005119
10:00+18всв216810 1.6 1004727
13:00+21св22557 4.4 10031119
16:00+22св544984 2.1 10021544
19:00+17в227281 4.7 100599
22:00+15зюз227946 2.2 100720
29 июля, чт
чт2901:00+13св118052 2.4 100813
04:00+13ссв117883 0.0 100815
07:00+13всв117495 0.1 1009153
10:00+15св11624 0.0 1009609
13:00+19всв22475 0.0 10061323
16:00+22св32407 0.0 10051607
19:00+22всв334138 0.0 10041091
22:00+15ююз005887 0.0 100611
30 июля, пт
пт3001:00+15з1157100 0.0 100715
04:00+13ю1165100 0.1 100711
07:00+15вюв016394 0.2 100875
10:00+18всв235460 0.1 1009836
13:00+21св4345100 0.3 10081700
16:00+19сз3355100 0.9 1009540
19:00+13ю1185100 4.8 1012137
22:00+13юз228694 1.1 101467
31 июля, сб
сб3101:00+13юз238588 1.9 101578
04:00+11ююз1181100 0.1 101411
07:00+13з118096 0.4 101570
10:00+16всв1161100 0.6 1015634
13:00+19ююв01439 1.1 10131486
16:00+22вюв233515 0.0 10111884
19:00+21в22404 0.0 1012429
22:00+15юз11570 0.0 101412